CZ-6A R/B, 61570

Orbit data source: Space-Track

CZ-6A R/B, 61570 is space debris in LEO originally from a launch on Tue, 15 Oct 2024 UTC launched from the Taiyaun Space Center, China (TSC). Debris objects in space refer to the collection of defunct objects orbiting the Earth. Examples of debris include non-operational satellites, rocket bodies, and fragments generated from explosions, collisions, or faulty payload assembly.

Loading next visibility...
Identifier
61570, 2024-185U
Orbit
LEO
Country
Flag of CNCN / PRC
Related business
Manufacturer
SAST
Mission
Spacecraft
Bus & Motor
CZ-6A STAGE 2, YF-115
Mass
~6,000 kg wet, ~6,000 kg dry
Launch date (UTC)
2024-10-15 (1 year ago)
Launch vehicle
Unknown
Launch site
Taiyaun Space Center, China (TSC)
Object type
Payload
Rocket body
Debris
Shape & HBR
Unknown shape, 5.5 m
Radar Cross Section
Large (>1 m²)

Expand to show TLE details & history
Last TLE update: 14 hours ago

TLE from 14 hours ago
0 CZ-6A R/B
1 61570U 24185U   25286.57390678  .00000483  00000-0  10987-3 0  9990
2 61570  89.0156  83.9765 0097023 319.8490  39.5575 14.51559495 51887
Epoch: 2025-10-13T13:46Z
TLE epoch observation values (Epoch: 2025-10-13T13:46:25.545Z)
Latitude
-0.00005°
Longitude
-145.00468°
Altitude
670.82 km
Speed
7.549 km/s
True Right ascension
05h 35m 54s
True Declination
0° 00' 00"
Sunlit
Object was in daylight at epoch
Visualization orbit readout
Latitude
Unknown
Longitude
Unknown
Altitude
Unknown
Speed
Unknown
Apparent Right ascension
Unknown
Apparent Declination
Unknown
Sunlit
N/A
Visualization observer readout
Local Sidereal Time
22:30:29
Azimuth
Unknown
Elevation
Unknown
Doppler factor
Unknown
Orbital elements
Apogee altitude
786.309 km
Perigee altitude
648.622 km
Semi-major axis
7,095.602 km
Eccentricity
0.0097
Inclination
89.0156°
RAAN
83.9765°
Arg. of periapsis
319.849°
True anomaly
40.27222°
Mean anomaly
39.5575°
Eccentric anomaly
39.91419°
Mean motion
3.63128 °/min
Orbital period
99.14 mins
BSTAR
0.00010987
Loading maneuver chart data...
Computing Atmospheric mass density...
Loading historical data...
Loading historical data...
Loading historical data...
Loading historical data...
Loading historical data...
Loading historical data...
Loading historical data...

Documentation

Showing up to 5 results
|